• In Czech Republic
  • List of Countries
  • For 7 days
  • Water Temperature
  • Satellite Maps
  • Weather Map
  • Weather Widgets
  • user-avatar
    Login

    Hourly Weather Garoua

    Today, 18 September, Tuesday

    Time Temperature Precipitation Wind Pressure Humidity
    00:00 +27°C° 0.6 mm 1 mps 741 mmHg 83%
    01:00 +26°C° 0 mm 1 mps 741 mmHg 85%
    02:00 +26°C° 0 mm 1 mps 741 mmHg 86%
    03:00 +26°C° 0 mm 1 mps 741 mmHg 87%
    04:00 +26°C° 0 mm 1 mps 741 mmHg 87%
    05:00 +26°C° 0 mm 1 mps 741 mmHg 87%
    06:00 +26°C° 0 mm 1 mps 741 mmHg 86%
    07:00 +27°C° 0 mm 1 mps 742 mmHg 84%
    08:00 +29°C° 0 mm 1 mps 742 mmHg 75%
    09:00 +31°C° 0 mm 1 mps 742 mmHg 66%
    10:00 +35°C° 0 mm 2 mps 742 mmHg 57%
    11:00 +36°C° 0 mm 1 mps 741 mmHg 52%
    12:00 +37°C° 0 mm 1 mps 741 mmHg 46%
    13:00 +40°C° 0 mm 1 mps 741 mmHg 41%
    14:00 +39°C° 0 mm 1 mps 740 mmHg 43%
    15:00 +39°C° 0 mm 1 mps 740 mmHg 44%
    16:00 +38°C° 0 mm 2 mps 740 mmHg 45%
    17:00 +35°C° 1.4 mm 2 mps 739 mmHg 55%
    18:00 +33°C° 1.4 mm 3 mps 739 mmHg 65%
    19:00 +30°C° 1.4 mm 3 mps 739 mmHg 74%
    20:00 +29°C° 1.6 mm 3 mps 740 mmHg 79%
    21:00 +28°C° 1.6 mm 2 mps 741 mmHg 84%
    22:00 +27°C° 1.6 mm 1 mps 742 mmHg 88%
    23:00 +26°C° 0.1 mm 1 mps 742 mmHg 89%

    Tomorrow, 19 September, Wednesday

    Time Temperature Precipitation Wind Pressure Humidity
    00:00 +26°C° 0.1 mm 1 mps 742 mmHg 90%
    01:00 +26°C° 0.1 mm 1 mps 742 mmHg 91%
    02:00 +26°C° 0 mm 1 mps 741 mmHg 91%
    03:00 +26°C° 0 mm 1 mps 741 mmHg 92%
    04:00 +26°C° 0 mm 1 mps 741 mmHg 92%
    05:00 +26°C° 0 mm 1 mps 741 mmHg 91%
    06:00 +26°C° 0 mm 1 mps 742 mmHg 91%
    07:00 +26°C° 0 mm 1 mps 742 mmHg 90%
    08:00 +29°C° 0 mm 1 mps 742 mmHg 79%
    09:00 +31°C° 0 mm 1 mps 742 mmHg 69%
    10:00 +33°C° 0 mm 1 mps 743 mmHg 58%
    11:00 +35°C° 0 mm 1 mps 742 mmHg 53%
    12:00 +36°C° 0 mm 1 mps 741 mmHg 48%
    13:00 +39°C° 0 mm 1 mps 741 mmHg 42%
    14:00 +39°C° 0 mm 1 mps 740 mmHg 42%
    15:00 +37°C° 0 mm 1 mps 740 mmHg 43%
    16:00 +37°C° 0 mm 1 mps 739 mmHg 43%
    17:00 +35°C° 0 mm 1 mps 740 mmHg 49%
    18:00 +33°C° 0 mm 1 mps 740 mmHg 54%
    19:00 +31°C° 0 mm 1 mps 740 mmHg 59%
    20:00 +30°C° 0.2 mm 1 mps 741 mmHg 64%
    21:00 +30°C° 0.2 mm 1 mps 741 mmHg 68%
    22:00 +29°C° 0.2 mm 1 mps 742 mmHg 73%
    23:00 +28°C° 1.2 mm 1 mps 742 mmHg 78%

    Day after tomorrow, 20 September, Thursday

    Time Temperature Precipitation Wind Pressure Humidity
    00:00 +27°C° 1.2 mm 1 mps 742 mmHg 83%
    01:00 +27°C° 1.2 mm 1 mps 742 mmHg 88%
    02:00 +26°C° 0.2 mm 1 mps 742 mmHg 89%
    03:00 +26°C° 0.2 mm 1 mps 741 mmHg 90%
    04:00 +26°C° 0.2 mm 1 mps 741 mmHg 91%
    05:00 +26°C° 0 mm 1 mps 741 mmHg 90%
    06:00 +26°C° 0 mm 1 mps 741 mmHg 90%
    07:00 +27°C° 0 mm 1 mps 741 mmHg 89%
    08:00 +29°C° 0 mm 1 mps 742 mmHg 79%
    09:00 +32°C° 0 mm 1 mps 742 mmHg 69%
    10:00 +34°C° 0 mm 1 mps 742 mmHg 59%
    11:00 +36°C° 0 mm 1 mps 742 mmHg 53%
    12:00 +39°C° 0 mm 1 mps 741 mmHg 47%
    13:00 +37°C° 0 mm 0 mps 740 mmHg 41%
    14:00 +40°C° 0 mm 1 mps 740 mmHg 41%
    15:00 +39°C° 0 mm 1 mps 739 mmHg 40%
    16:00 +39°C° 0 mm 1 mps 738 mmHg 40%
    17:00 +36°C° 0 mm 1 mps 738 mmHg 45%
    18:00 +34°C° 0 mm 1 mps 739 mmHg 51%
    19:00 +30°C° 0 mm 0 mps 739 mmHg 56%
    20:00 +31°C° 0 mm 1 mps 740 mmHg 57%
    21:00 +31°C° 0 mm 1 mps 740 mmHg 59%
    22:00 +30°C° 0 mm 1 mps 741 mmHg 60%
    23:00 +29°C° 2.2 mm 1 mps 741 mmHg 70%

    21 September, Friday

    Time Temperature Precipitation Wind Pressure Humidity
    00:00 +28°C° 2.2 mm 1 mps 741 mmHg 79%
    01:00 +26°C° 2.2 mm 1 mps 740 mmHg 88%
    02:00 +26°C° 1.3 mm 1 mps 740 mmHg 90%
    03:00 +26°C° 1.3 mm 1 mps 740 mmHg 92%
    04:00 +26°C° 1.3 mm 1 mps 740 mmHg 93%
    05:00 +26°C° 0.2 mm 1 mps 741 mmHg 93%
    06:00 +26°C° 0.2 mm 1 mps 741 mmHg 93%
    07:00 +26°C° 0.2 mm 1 mps 741 mmHg 92%
    08:00 +28°C° 0 mm 1 mps 742 mmHg 85%
    09:00 +29°C° 0 mm 1 mps 742 mmHg 78%
    10:00 +31°C° 0 mm 1 mps 743 mmHg 70%
    11:00 +33°C° 0 mm 1 mps 742 mmHg 64%
    12:00 +34°C° 0 mm 1 mps 741 mmHg 57%
    13:00 +36°C° 0 mm 1 mps 740 mmHg 50%
    14:00 +36°C° 0 mm 1 mps 740 mmHg 50%
    15:00 +36°C° 0 mm 1 mps 739 mmHg 49%
    16:00 +34°C° 0 mm 0 mps 739 mmHg 48%
    17:00 +32°C° 0 mm 0 mps 739 mmHg 54%
    18:00 +31°C° 0 mm 0 mps 739 mmHg 59%
    19:00 +29°C° 0 mm 0 mps 740 mmHg 65%
    20:00 +28°C° 0.4 mm 0 mps 740 mmHg 68%
    21:00 +27°C° 0.4 mm 0 mps 741 mmHg 72%
    22:00 +29°C° 0.4 mm 1 mps 741 mmHg 76%
    23:00 +28°C° 1.4 mm 1 mps 741 mmHg 81%

    22 September, Saturday

    Time Temperature Precipitation Wind Pressure Humidity
    00:00 +27°C° 1.4 mm 1 mps 741 mmHg 86%
    01:00 +26°C° 1.4 mm 1 mps 740 mmHg 91%
    02:00 +26°C° 0.7 mm 1 mps 740 mmHg 91%
    03:00 +26°C° 0.7 mm 1 mps 740 mmHg 92%
    04:00 +26°C° 0.7 mm 1 mps 740 mmHg 92%
    05:00 +26°C° 0.7 mm 1 mps 741 mmHg 92%
    06:00 +27°C° 0.7 mm 1 mps 741 mmHg 92%
    07:00 +25°C° 0.7 mm 0 mps 742 mmHg 91%
    08:00 +27°C° 0.1 mm 1 mps 742 mmHg 89%
    09:00 +28°C° 0.1 mm 1 mps 742 mmHg 87%
    10:00 +29°C° 0.1 mm 2 mps 743 mmHg 84%
    11:00 +30°C° 0 mm 2 mps 742 mmHg 77%
    12:00 +32°C° 0 mm 2 mps 741 mmHg 69%
    13:00 +35°C° 0 mm 2 mps 740 mmHg 61%
    14:00 +35°C° 0 mm 2 mps 740 mmHg 60%
    15:00 +34°C° 0 mm 1 mps 739 mmHg 58%
    16:00 +34°C° 0 mm 1 mps 739 mmHg 57%
    17:00 +33°C° 0 mm 1 mps 739 mmHg 63%
    18:00 +31°C° 0 mm 1 mps 740 mmHg 68%
    19:00 +30°C° 0 mm 1 mps 740 mmHg 74%
    20:00 +29°C° 0 mm 1 mps 741 mmHg 75%
    21:00 +29°C° 0 mm 1 mps 741 mmHg 76%
    22:00 +28°C° 0 mm 1 mps 741 mmHg 77%
    23:00 +28°C° 0 mm 1 mps 741 mmHg 78%

    23 September, Sunday

    Time Temperature Precipitation Wind Pressure Humidity
    00:00 +28°C° 0 mm 1 mps 741 mmHg 79%
    01:00 +27°C° 0 mm 1 mps 740 mmHg 80%
    02:00 +27°C° 0 mm 1 mps 740 mmHg 81%
    03:00 +27°C° 0 mm 1 mps 740 mmHg 82%
    04:00 +27°C° 0 mm 1 mps 740 mmHg 83%
    05:00 +27°C° 0 mm 1 mps 741 mmHg 83%
    06:00 +27°C° 0 mm 1 mps 742 mmHg 83%
    07:00 +27°C° 0 mm 1 mps 742 mmHg 83%
    08:00 +29°C° 0.3 mm 1 mps 743 mmHg 78%
    09:00 +30°C° 0.3 mm 1 mps 743 mmHg 73%
    10:00 +32°C° 0.3 mm 1 mps 743 mmHg 68%
    11:00 +32°C° 0.7 mm 1 mps 742 mmHg 65%
    12:00 +33°C° 0.7 mm 1 mps 741 mmHg 62%
    13:00 +34°C° 0.7 mm 1 mps 741 mmHg 59%
    14:00 +34°C° 0 mm 1 mps 740 mmHg 57%
    15:00 +34°C° 0 mm 1 mps 740 mmHg 55%
    16:00 +35°C° 0 mm 1 mps 740 mmHg 54%
    17:00 +33°C° 0 mm 1 mps 740 mmHg 60%
    18:00 +31°C° 0 mm 1 mps 741 mmHg 66%
    19:00 +28°C° 0 mm 0 mps 741 mmHg 71%
    20:00 +27°C° 0.3 mm 0 mps 741 mmHg 74%
    21:00 +26°C° 0.3 mm 0 mps 742 mmHg 77%
    22:00 +26°C° 0.3 mm 0 mps 742 mmHg 80%
    23:00 +25°C° 0.5 mm 0 mps 742 mmHg 82%
    Show more